User: anonymous   Login
Location: Iola
(37.9240°N, 95.4000°W)
Time: 03:21:48
(UTC-05:00)
Language:

Meteor 2-10 Rocket - Orbit

View from above orbital plane
View from above orbital plane
View from above satellite
View from above satellite

Ground track
Ground track

The orbit data is extracted from the following two-line orbital elements,

1 14453U 83109B   18145.55097397 +.00000037 +00000-0 +93207-5 0  9998
2 14453 081.1651 121.8838 0105527 152.6305 208.0490 14.24694966796202
Epoch (UTC): 25 May 2018 13:13:24
Eccentricity: 0.0105527
inclination: 81.1651°
perigee height: 733 km
apogee height: 885 km
right ascension of ascending node: 121.8838°
argument of perigee: 152.6305°
revolutions per day: 14.24694966
mean anomaly at epoch: 208.0490°
orbit number at epoch: 79620

The dashed part of the orbit path shows where the satellite is in the earth's shadow,  

DLR